Météo par heure à Ali

Ce jour, 25 Octobre, Dimanche

Heure Température Précipitation Vent Pression Humidité
00:00 +6°C° 0 mm 1 m/s 721 mmHg 65%
01:00 +6°C° 0 mm 1 m/s 720 mmHg 66%
02:00 +5°C° 0 mm 1 m/s 720 mmHg 67%
03:00 +4°C° 0 mm 2 m/s 720 mmHg 66%
04:00 +4°C° 0 mm 2 m/s 720 mmHg 65%
05:00 +4°C° 0 mm 2 m/s 720 mmHg 64%
06:00 +4°C° 0 mm 3 m/s 720 mmHg 63%
07:00 +5°C° 0 mm 3 m/s 720 mmHg 61%
08:00 +5°C° 0 mm 4 m/s 720 mmHg 59%
09:00 +7°C° 0 mm 4 m/s 720 mmHg 53%
10:00 +10°C° 0 mm 4 m/s 720 mmHg 47%
11:00 +11°C° 0 mm 3 m/s 720 mmHg 41%
12:00 +12°C° 0 mm 3 m/s 720 mmHg 39%
13:00 +13°C° 0 mm 3 m/s 719 mmHg 36%
14:00 +15°C° 0 mm 2 m/s 719 mmHg 33%
15:00 +14°C° 0 mm 2 m/s 719 mmHg 37%
16:00 +12°C° 0 mm 2 m/s 719 mmHg 41%
17:00 +10°C° 0 mm 2 m/s 719 mmHg 45%
18:00 +9°C° 0 mm 2 m/s 719 mmHg 47%
19:00 +9°C° 0 mm 2 m/s 720 mmHg 49%
20:00 +8°C° 0 mm 2 m/s 720 mmHg 51%
21:00 +8°C° 0 mm 2 m/s 720 mmHg 52%
22:00 +7°C° 0 mm 2 m/s 719 mmHg 52%
23:00 +7°C° 0 mm 2 m/s 719 mmHg 53%

Demain, 26 Octobre, Lundi

Heure Température Précipitation Vent Pression Humidité
00:00 +7°C° 0 mm 2 m/s 719 mmHg 52%
01:00 +7°C° 0 mm 2 m/s 719 mmHg 52%
02:00 +7°C° 0 mm 3 m/s 718 mmHg 52%
03:00 +5°C° 0 mm 3 m/s 718 mmHg 51%
04:00 +5°C° 0 mm 3 m/s 718 mmHg 51%
05:00 +5°C° 0 mm 4 m/s 718 mmHg 51%
06:00 +6°C° 0 mm 4 m/s 718 mmHg 48%
07:00 +6°C° 0 mm 5 m/s 718 mmHg 45%
08:00 +7°C° 0 mm 5 m/s 718 mmHg 43%
09:00 +9°C° 0 mm 6 m/s 717 mmHg 39%
10:00 +11°C° 0 mm 6 m/s 716 mmHg 34%
11:00 +14°C° 0 mm 7 m/s 716 mmHg 30%
12:00 +15°C° 0 mm 7 m/s 715 mmHg 29%
13:00 +15°C° 0 mm 6 m/s 715 mmHg 27%
14:00 +16°C° 0 mm 6 m/s 714 mmHg 26%
15:00 +15°C° 0 mm 6 m/s 714 mmHg 28%
16:00 +14°C° 0 mm 5 m/s 714 mmHg 29%
17:00 +12°C° 0 mm 4 m/s 714 mmHg 31%
18:00 +12°C° 0 mm 3 m/s 714 mmHg 32%
19:00 +13°C° 0 mm 2 m/s 714 mmHg 33%
20:00 +12°C° 0 mm 2 m/s 714 mmHg 33%
21:00 +12°C° 0 mm 2 m/s 714 mmHg 34%
22:00 +12°C° 0 mm 2 m/s 714 mmHg 35%
23:00 +12°C° 0 mm 2 m/s 714 mmHg 35%

Après-demain, 27 Octobre, Mardi

Heure Température Précipitation Vent Pression Humidité
00:00 +10°C° 0 mm 2 m/s 714 mmHg 36%
01:00 +10°C° 0 mm 2 m/s 713 mmHg 37%
02:00 +10°C° 0 mm 2 m/s 713 mmHg 38%
03:00 +9°C° 0 mm 2 m/s 713 mmHg 38%
04:00 +9°C° 0 mm 2 m/s 713 mmHg 37%
05:00 +9°C° 0 mm 2 m/s 712 mmHg 37%
06:00 +10°C° 0 mm 3 m/s 712 mmHg 35%
07:00 +11°C° 0 mm 3 m/s 712 mmHg 33%
08:00 +11°C° 0 mm 4 m/s 712 mmHg 31%
09:00 +13°C° 0 mm 5 m/s 712 mmHg 28%
10:00 +15°C° 0 mm 5 m/s 711 mmHg 25%
11:00 +17°C° 0 mm 6 m/s 711 mmHg 22%
12:00 +19°C° 0 mm 6 m/s 710 mmHg 21%
13:00 +20°C° 0 mm 7 m/s 710 mmHg 20%
14:00 +21°C° 0 mm 7 m/s 709 mmHg 19%
15:00 +18°C° 0 mm 7 m/s 709 mmHg 21%
16:00 +17°C° 0 mm 7 m/s 709 mmHg 22%
17:00 +16°C° 0 mm 6 m/s 708 mmHg 23%
18:00 +15°C° 0 mm 5 m/s 709 mmHg 25%
19:00 +15°C° 0 mm 4 m/s 709 mmHg 26%
20:00 +14°C° 0 mm 3 m/s 709 mmHg 27%
21:00 +14°C° 0 mm 3 m/s 709 mmHg 28%
22:00 +13°C° 0 mm 3 m/s 709 mmHg 29%
23:00 +13°C° 0 mm 3 m/s 710 mmHg 30%

28 Octobre, Mercredi

Heure Température Précipitation Vent Pression Humidité
00:00 +12°C° 0 mm 3 m/s 710 mmHg 37%
01:00 +11°C° 0 mm 3 m/s 710 mmHg 43%
02:00 +10°C° 0 mm 3 m/s 710 mmHg 50%
03:00 +9°C° 0 mm 2 m/s 710 mmHg 51%
04:00 +9°C° 0 mm 2 m/s 710 mmHg 51%
05:00 +9°C° 0 mm 1 m/s 710 mmHg 52%
06:00 +9°C° 0 mm 1 m/s 711 mmHg 50%
07:00 +9°C° 0 mm 2 m/s 711 mmHg 47%
08:00 +9°C° 0 mm 2 m/s 712 mmHg 45%
09:00 +9°C° 0 mm 2 m/s 712 mmHg 43%
10:00 +10°C° 0 mm 3 m/s 712 mmHg 40%
11:00 +11°C° 0 mm 3 m/s 712 mmHg 38%
12:00 +10°C° 0 mm 3 m/s 712 mmHg 42%
13:00 +10°C° 0 mm 4 m/s 712 mmHg 46%
14:00 +8°C° 0 mm 4 m/s 712 mmHg 50%
15:00 +8°C° 0.8 mm 3 m/s 713 mmHg 60%
16:00 +7°C° 0.8 mm 3 m/s 714 mmHg 71%
17:00 +6°C° 0.8 mm 2 m/s 714 mmHg 81%
18:00 +5°C° 0.4 mm 3 m/s 715 mmHg 77%
19:00 +5°C° 0.4 mm 4 m/s 715 mmHg 74%
20:00 +5°C° 0.4 mm 5 m/s 716 mmHg 70%
21:00 +5°C° 0 mm 4 m/s 716 mmHg 68%
22:00 +5°C° 0 mm 3 m/s 716 mmHg 67%
23:00 +5°C° 0 mm 2 m/s 716 mmHg 65%

29 Octobre, Jeudi

Heure Température Précipitation Vent Pression Humidité
00:00 +4°C° 0 mm 3 m/s 716 mmHg 63%
01:00 +4°C° 0 mm 3 m/s 717 mmHg 62%
02:00 +4°C° 0 mm 3 m/s 717 mmHg 60%
03:00 +3°C° 0 mm 3 m/s 717 mmHg 61%
04:00 +3°C° 0 mm 3 m/s 717 mmHg 62%
05:00 +4°C° 0 mm 2 m/s 718 mmHg 63%
06:00 +4°C° 0 mm 2 m/s 718 mmHg 60%
07:00 +5°C° 0 mm 2 m/s 718 mmHg 57%
08:00 +5°C° 0 mm 2 m/s 718 mmHg 54%
09:00 +6°C° 0 mm 2 m/s 718 mmHg 51%
10:00 +6°C° 0 mm 2 m/s 718 mmHg 48%
11:00 +7°C° 0 mm 3 m/s 718 mmHg 45%
12:00 +7°C° 0 mm 3 m/s 718 mmHg 44%
13:00 +7°C° 0 mm 3 m/s 718 mmHg 43%
14:00 +6°C° 0 mm 4 m/s 719 mmHg 42%
15:00 +7°C° 0 mm 3 m/s 719 mmHg 46%
16:00 +5°C° 0 mm 3 m/s 720 mmHg 49%
17:00 +4°C° 0 mm 3 m/s 721 mmHg 53%
18:00 +5°C° 0 mm 2 m/s 721 mmHg 53%
19:00 +4°C° 0 mm 2 m/s 722 mmHg 53%
20:00 +3°C° 0 mm 2 m/s 723 mmHg 54%
21:00 +3°C° 0 mm 2 m/s 723 mmHg 55%
22:00 +2°C° 0 mm 2 m/s 723 mmHg 57%
23:00 +1°C° 0 mm 2 m/s 724 mmHg 59%

30 Octobre, Vendredi

Heure Température Précipitation Vent Pression Humidité
00:00 +1°C° 0 mm 2 m/s 724 mmHg 60%
01:00 +2°C° 0 mm 1 m/s 724 mmHg 61%
02:00 +1°C° 0 mm 1 m/s 724 mmHg 63%
03:00 +1°C° 0 mm 1 m/s 725 mmHg 64%
04:00 0°C° 0 mm 1 m/s 725 mmHg 66%
05:00 0°C° 0 mm 1 m/s 725 mmHg 67%
06:00 +1°C° 0 mm 1 m/s 726 mmHg 64%
07:00 +1°C° 0 mm 1 m/s 726 mmHg 61%
08:00 +2°C° 0 mm 1 m/s 726 mmHg 57%
09:00 +3°C° 0 mm 1 m/s 726 mmHg 54%
10:00 +4°C° 0 mm 1 m/s 726 mmHg 51%
11:00 +4°C° 0 mm 2 m/s 726 mmHg 47%
12:00 +5°C° 0 mm 2 m/s 726 mmHg 45%
13:00 +6°C° 0 mm 2 m/s 725 mmHg 43%
14:00 +6°C° 0 mm 2 m/s 725 mmHg 40%
15:00 +5°C° 0 mm 2 m/s 726 mmHg 43%
16:00 +4°C° 0 mm 2 m/s 726 mmHg 46%
17:00 +4°C° 0 mm 2 m/s 726 mmHg 49%
18:00 +3°C° 0 mm 2 m/s 726 mmHg 50%
19:00 +3°C° 0 mm 2 m/s 726 mmHg 51%
20:00 +2°C° 0 mm 2 m/s 726 mmHg 53%
21:00 +2°C° 0 mm 2 m/s 726 mmHg 54%
22:00 +2°C° 0 mm 1 m/s 726 mmHg 55%
23:00 +2°C° 0 mm 1 m/s 726 mmHg 56%
Voir plus

Nous avons besoin de votre consentement

Meteoprog et ses fournisseurs de services peuvent stocker et accéder à des données personnelles telles que des cookies, des identifiants d'appareils ou d'autres technologies similaires sur votre appareil et traiter ces données pour personnaliser le contenu et les publicités, ainsi que pour fournir des fonctionnalités de médias sociaux et analyser le trafic.

  • Stocker et/ou accéder à des informations sur votre appareil

    Des cookies, des identifiants d'appareils ou d'autres informations peuvent être stockés ou accessibles sur votre appareil aux fins indiquées ci-dessus.

  • Annonces et contenus personnalisés, mesure des annonces et des contenus, connaissance de l'audience et développement de produits

    Les annonces et le contenu peuvent être personnalisés en fonction d'un profil. D'autres données peuvent être ajoutées pour mieux personnaliser les annonces et le contenu. Les performances des publicités et du contenu peuvent être mesurées. Il est possible d'obtenir des informations sur le public qui a vu les publicités et le contenu. Ces données peuvent être utilisées pour développer ou améliorer l'expérience de l'utilisateur, les systèmes et les logiciels.

En cliquant sur "J'accepte", vous autorisez l'utilisation de cookies, des identifiants d'appareils, des balises web ou d'autres technologies similaires. Vos paramètres peuvent être modifiés dans le navigateur de votre appareil.

Dans certains cas, des intérêts légitimes peuvent être invoqués plutôt qu'un consentement. Vous pouvez en savoir plus à ce sujet dans notre Politique de confidentialité et de cookies.